www.pogodaiklimat.ru

Погода и климат >> Архив погоды >> Россия >> Камчатский край >> Большерецк


ПОГОДА в Большерецке

  • Прогноз погоды в Большерецке
  • Монитор погоды в Большерецке
  • Климат города

АРХИВ ПОГОДЫ в Большерецке

Время (UTC), дата Ветер
(напр.,м/с)
 
Видим.   Явления Облачность Т
(С)
Тd
(С)
f
(%)
Тe
(С)
Тes
(С)
Комфортность P
(гПа)
Po
(гПа)
Тmin
(С)
Tmax
(С)
R
(мм)
S
(см)
09 16.03 ЮВ 2 20 км 9/9 600 м
[Sc]
+2.1 -1.6 76 -1 -1 1003.4 999.7 +5.0
12 16.03 Ю 3 20 км 10/10 600 м
[Sc]
+1.0 -2.1 80 -3 -3 1004.6 1000.9
15 16.03 С 3 20 км 10/4 600 м
[Sc Ci fib]
-2.0 -2.7 95 -7 -7 1004.3 1000.6
18 16.03 С 5 20 км {ливн. осадки} 10/10 600 м
[Cb cap]
-1.0 -1.8 94 -8 -8 1003.0 999.2
21 16.03 С 5 20 км 10/10 600 м
[Cb cap]
-0.6 -2.1 90 -7 -7 1002.2 998.4 -2.2 0.0 70
00 17.03 С 6-10
{10}
50 км 9/9 600 м
[Sc]
+0.6 -1.5 86 -6 -6 999.7 995.9
03 17.03 С 7-10
{10}
50 км 9/9 600 м
[Sc]
+2.1 -2.5 72 -4 -4 996.6 992.9
06 17.03 С 7-10
{11}
50 км 9/9 600 м
[Sc]
+2.9 -2.3 69 -3 -3 995.3 991.6
09 17.03 СВ 3
{10}
20 км 10/10 600 м
[Sc]
+3.1 -2.4 67 -1 -1 995.2 991.5 +3.2
12 17.03 СВ 3 20 км 10/10 600 м
[Sc]
+3.7 -3.0 62 0 0 994.0 990.3
15 17.03 СВ 3 20 км 10/10 600 м
[Sc]
+3.5 -3.4 61 0 0 992.9 989.2
18 17.03 СВ 4 20 км 10/10 600 м
[Sc]
+3.8 -3.7 58 -0 -0 992.5 988.8
21 17.03 СВ 4 50 км 10/10 600 м
[Sc]
+3.5 -3.9 58 -1 -1 993.2 989.6 +2.0 68
00 18.03 СВ 3 50 км 10/10 600 м
[Sc]
+4.3 -3.8 56 +1 +1 993.4 989.8
03 18.03 С 3 50 км 10/0
[Ac As]
+3.3 -2.2 67 -0 +2 993.6 989.9
06 18.03 СЗ 4 20 км 10/0
[Ac As]
+0.8 -0.6 90 -5 -4 993.4 989.7
09 18.03 СЗ 4 20 км 10/0
[Ac As]
+0.2 -1.0 92 -5 -5 993.3 989.6 +5.4
12 18.03 С 2 20 км 10/0
[Ac As]
-0.3 -1.5 92 -4 -4 992.8 989.1
15 18.03 штиль 0 20 км 10/0
[Ac As]
-0.4 -1.7 91 -2 -2 992.5 988.7
18 18.03 С 2 20 км 10/0
[Ac As]
-0.4 -2.1 88 -4 -4 992.3 988.6
21 18.03 С 1 50 км 9/6 600 м
[Sc Ac trans]
+1.3 -1.9 79 -0 -0 992.6 988.9 -0.6 65
00 19.03 С 1 50 км 9/6 600 м
[Sc Ac trans]
+4.6 -0.9 67 +4 +5 992.7 989.0
03 19.03 З 2 50 км 8/6 600 м
[Sc Ac trans]
+3.4 -2.3 66 +1 +3 992.2 988.5
06 19.03 СЗ 2 50 км 10/4 600 м
[Sc Ac und]
+2.3 -2.3 72 -1 -0 992.4 988.7
09 19.03 В 3 20 км 10/0
[Ac und]
+2.9 -2.1 70 -1 -1 993.7 990.0 +5.3
12 19.03 штиль 0 20 км 10/0
[Ac und]
+1.5 -1.7 79 +1 +1 994.1 990.4
15 19.03 СВ 1 20 км 10/0
[Ac und]
+0.8 -1.9 82 -1 -1 994.1 990.4
18 19.03 С 3 20 км 4/0
[Ac lent]
-1.1 -3.8 82 -6 -6 994.3 990.6
21 19.03 СВ 3 50 км 8/4 600 м
[Sc Ac trans]
-2.6 -4.8 85 -8 -7 995.0 991.2 -3.0 63
00 20.03 С 2 50 км 3/3 600 м
[Cu hum]
+3.5 -2.5 65 +1 +6 994.8 991.1
03 20.03 С 4 50 км 9/4 600 м
[Cu hum Ci]
+2.9 -2.6 67 -2 +1 994.3 990.6
06 20.03 СЗ 3 50 км 9/4 600 м
[Sc Cs]
+1.4 -1.6 80 -3 -2 994.8 991.1
09 20.03 СЗ 4 20 км 9/4 600 м
[Sc Ci fib]
+0.1 -1.6 88 -5 -5 995.8 992.0 +3.7
12 20.03 С 2 20 км 6/0
[Ci fib]
+0.2 -2.6 81 -3 -3 995.9 992.2
15 20.03 С 2 20 км 6/3 600 м
[Sc Ci fib]
+0.6 -4.2 70 -3 -3 996.1 992.4
18 20.03 СВ 3 20 км 9/4 600 м
[Sc Ci]
+0.8 -3.1 75 -4 -4 996.7 993.0
21 20.03 С 3 50 км 9/9 600 м
[Sc]
-0.1 -2.9 81 -5 -5 997.8 994.1 -1.8 59
00 21.03 СВ 3 50 км 9/4 600 м
[Sc Cs]
+4.1 -2.1 64 +1 +4 998.6 994.9
03 21.03 С 3 50 км 10/0
[Cs]
+3.0 -1.5 72 -1 +4 999.0 995.3
06 21.03 СЗ 3 50 км 9/0
[Ci]
+2.3 -2.2 72 -2 -1 999.8 996.1
09 21.03 СЗ 4 20 км 9/4 600 м
[Sc Ci fib]
-0.7 -1.5 94 -6 -6 1001.2 997.4 +5.7
12 21.03 З 2 20 км 10/10 600 м
[Sc]
-3.1 -3.3 99 -7 -7 1001.9 998.1
15 21.03 ЮЗ 2 500 м туман ?/? -2.8 -2.9 99 -7 -7 1002.4 998.6
18 21.03 Ю 2 500 м туман ?/? -2.9 -3.0 99 -7 -7 1002.9 999.1
21 21.03 Ю 1 20 км слабый ливневой снег {туман} 10/10 600 м
[Cb cap]
-2.2 -2.2 100 -5 -5 1003.8 1000.0 -3.3 0.2 59
00 22.03 Ю 3 20 км {ливн. осадки, туман} 10/10 600 м
[Cb cap]
-1.6 -1.8 99 -7 -7 1004.3 1000.5
03 22.03 Ю 3 20 км в посл. час ливневой снег 10/10 600 м
[Cb cap]
-0.6 -1.4 94 -6 -6 1004.5 1000.7
06 22.03 Ю 2 20 км слабый ливневой снег 10/10 600 м
[Cb cap]
-0.7 -1.2 96 -5 -5 1004.9 1001.1
09 22.03 Ю 1 20 км слабый ливневой снег 10/10 600 м
[Cb cap]
-2.0 -2.1 99 -4 -4 1005.8 1002.0 -0.1 0.5
12 22.03 Ю 2 20 км слабый ливневой снег 10/10 600 м
[Cb cap]
-2.1 -2.2 99 -6 -6 1005.9 1002.1
15 22.03 Ю 2 10 км слабый ливневой снег 10/10 600 м
[Cb cap]
-2.0 -2.0 100 -6 -6 1006.0 1002.2
18 22.03 ЮВ 2 10 км слабый ливневой снег 10/10 600 м
[Cb cap]
-2.5 -2.6 99 -7 -7 1005.7 1001.9
21 22.03 ЮВ 1 20 км слабый ливневой снег 10/10 600 м
[Cb cap]
-2.0 -2.1 99 -4 -4 1005.8 1002.0 -2.9 0.5 60
00 23.03 Ю 2 50 км в посл. час ливневой снег 9/9 600 м
[Cb cap]
-0.2 -1.9 88 -4 -3 1006.1 1002.3
03 23.03 З 3 50 км 9/9 600 м
[Cb calv]
+0.7 -3.3 75 -4 -3 1005.8 1002.0
06 23.03 З 2 50 км 9/9 600 м
[Sc]
-0.2 -2.9 82 -4 -4 1005.8 1002.1

 

Местоположение метеостанции Большерецк (Камчатский край, Россия): широта 52.83 долгота 156.30 высота над уровнем моря 30 м.

В архиве по умолчанию представлена погода в Большерецке за последнюю неделю. Архивные данные за месяц целиком и за предыдущие месяцы, начиная с января 2011 года, Вы можете получить, выбрав интересующий диапазон дат из раскрывающегося списка и нажав кнопку "Ввод!".

Внимание! Время в таблицах - всемирное. Для получения местного времени необходимо прибавить поправку, которая в Большерецке равна 12 ч.

Смотрите также архив погоды в соседних городах и на ближайших метеорологических станциях:

Погода в Начиках (Камчатский край, Россия) (99 км)
Погода в Сосновке (Камчатский край, Россия) (137 км)
Погода в Петропавловск-Камч. 2 (Камчатский край, Россия) (150 км)
Погода в Озерной (Камчатский край, Россия) (150 км)
Погода в Петропавловск-Камчатском (Камчатский край, Россия) (155 км)
Погода в Водопадной (Камчатский край, Россия) (161 км)
Погода в Петропавловском Маяке (Камчатский край, Россия) (161 км)
Погода в Соболево (Камчатский край, Россия) (166 км)
Погода в Пущино (Камчатский край, Россия) (188 км)
Погода на Мысе Лопатка (Камчатский край, Россия) (219 км)

Пояснения к столбцам:

Ветер - указаны скорость ветра в м/с - средняя за 10 мин, порывы в срок и между сроками (в фигурных скобках) и направление, откуда дует ветер: С - северный, СВ - северо-восточный, В - восточный, ЮВ - юго-восточный, Ю - южный, ЮЗ - юго-западный, З - западный, СЗ - северо-западный.
Видимость - горизонтальная дальность видимости в метрах или километрах. При видимости от 1 до 10 км при отсутствии осадков обычно наблюдается дымка, при ухудшении видимости до 1 км и менее - туман. В сухую погоду видимость может ухудшаться дымом, пылью или мглою.
Явления - указаны атмосферные явления, наблюдавшиеся в срок или в последний час перед сроком; фигурными скобками обозначены явления, наблюдавшиеся между сроками (за 1-3 часа до срока); квадратными скобками обозначены град или гололедные отложения с указанием их диаметра в мм.
Облачность - указаны через наклонную черту общая и нижняя облачность в баллах и высота нижней границы облаков в метрах; квадратными скобками обозначены формы облаков: Ci - перистые, Cs - перисто-слоистые, Cc - перисто-кучевые, Ac - высококучевые, As - высокослоистые, Sc - слоисто-кучевые, Ns - слоисто-дождевые, Cu - кучевые, Cb - кучево-дождевые. Подробнее классификацию облаков см. в Атласе облаков (PDF).
T - Температура воздуха - температура, измеренная на высоте 2 м над землей.
Td - Температура точки росы - температура, при понижении до которой содержащийся в воздухе водяной пар достигнет насыщения.
f - Относительная влажность воздуха - влажноcть воздуха, измеренная на высоте 2 м над землей.
Te - Эффективная температура - температура, которую ощущает одетый по сезону человек в тени. Характеристика душности погоды. При расчете учитывается влияние влажности воздуха и скорости ветра на теплоощущения человека.
Tes - Эффективная температура на солнце - температура, которую ощущает человек, с поправкой на солнечный нагрев. Характеристика знойности погоды. Зависит от высоты солнца над горизонтом, облачности и скорости ветра. Ночью, в пасмурную погоду, а также при ветре 12 м/с и более поправка равна нулю.
P - Атмосферное давление - приведенное к уровню моря атмосферное давление.
Po - Атмосферное давление - измеренное на уровне метеостанции атмосферное давление.
Tmin - Минимальная температура - минимум температуры воздуха на высоте 2 м над землей.
Tmax - Максимальная температура - максимум температуры воздуха на высоте 2 м над землей.
R - Количество осадков - Количество выпавших осадков, мм. При наведении курсора мыши на число - период времени, за который выпало указанное количество осадков.
S - Снежный покров - Высота снежного покрова, см. При наведении курсора мыши на число - состояние снежного покрова и степень покрытия местности в баллах.